ROMMA est une association bénévole à but non lucratif. Votre soutien est indispensable : ADHERER à ROMMA ou FAIRE un DON

Crêts du Salève - (74, Haute-Savoie)

Salève (1270 m)   Longitude: 6° 10' 28'' E   Latitude: 46° 7' 42'' N Station romma n°73
 

Détail journalier du     <<     >>

Température Precipitation Humidité Vent Dir Rafale Dir. rafale Ensol.
Heure (°C) (mm) (%) (km/h) (km/h) (min)
01:00 6.02.49318ONO35NO0
02:00 5.60973ONO13O0
03:00 6.00965N18NO0
04:00 5.80.2964N13ONO0
05:00 6.109411O16O0
06:00 5.509812OSO19O0
07:00 5.609719OSO31OSO0
08:00 5.00.69926O39O0
09:00 5.10.29930O45OSO0
10:00 5.0010033O44O0
11:00 4.809937O52O0
12:00 4.5010037OSO48OSO0
13:00 5.009936SO58SO0
14:00 5.709832SO53OSO0
15:00 6.209433SSO60SSO0
16:00 6.609235S56S0
17:00 6.309433SSO56SSO0
18:00 6.609536SSO61SSO0
19:00 6.909440SSO63SSO10
20:00 8.209031SSO52SSO0
21:00 7.709432OSO58OSO0
22:00 8.209328SO50SO0
23:00 8.509230SSO48SSO0
minuit 8.609128SSO45SO0

Graphique du 05-06-2020

 

Serveur OMMA